Simultaneous Nadir Overpasses (SNOs) Predictions

Prediction of SNOs between GOES-16 and NOAA-20 Satellite Orbit:

Table of predicted SNOs for the next 14.0 days since TLE Epoch: 7/8/2023
Index Date Time (GOES-16) GOES-16 Lat,Lon NOAA-20 Lat,Lon Distance(km) Time Diff (sec)
1 07/08/2023 18:17:55 0.01, -75.20 0.57, -72.78 276.45 80
2 07/10/2023 06:39:42 -0.01, -75.21 0.65, -78.04 323.44 80
3 07/11/2023 06:18:19 -0.01, -75.22 -0.41, -73.53 193.66 80
4 07/12/2023 18:40:15 0.00, -75.24 -0.81, -78.83 409.57 80
5 07/13/2023 18:24:10 -0.00, -75.25 0.19, -74.30 107.88 80
6 07/15/2023 06:45:59 0.01, -75.26 0.97, -79.57 491.01 80
7 07/16/2023 06:24:34 0.01, -75.28 -0.04, -75.04 26.63 80
8 07/18/2023 18:27:46 -0.02, -75.32 -0.16, -75.82 57.67 80
9 07/19/2023 18:11:43 -0.02, -75.34 0.91, -71.30 460.74 80
10 07/21/2023 06:33:30 0.02, -75.37 0.31, -76.57 136.64 80
